Location: Ferchesar
(52.6477°N, 12.4298°E)
Time: 08:30:01
(UTC+01:00)

Transit 2A Rocket - Visible Passes

Search period start: 07 December 2021 00:00
Search period end: 17 December 2021 00:00
Orbit: 584 x 918 km, 66.7° (Epoch: 06 December)

Date Brightness Start Highest point End Pass type
(mag) Time Alt. Az. Time Alt. Az. Time Alt. Az.
07 Dec 8.7 05:22:30 10° ESE 05:23:29 10° E 05:24:30 10° E visible
07 Dec 6.4 06:59:10 10° SSW 07:04:44 51° ESE 07:10:37 10° NE visible
07 Dec 8.6 17:22:14 10° WNW 17:24:52 13° W 17:27:28 10° SW visible
08 Dec 7.1 06:17:07 10° S 06:22:16 34° ESE 06:27:41 10° NE visible
08 Dec 8.2 16:38:20 10° WNW 16:42:40 21° WSW 16:46:50 10° SSW visible
09 Dec 7.7 05:35:30 10° SSE 05:39:55 23° ESE 05:44:31 10° ENE visible
09 Dec 5.4 07:15:59 10° SW 07:21:52 89° NW 07:28:03 10° NE visible
10 Dec 8.2 04:54:37 10° SE 04:57:41 15° ESE 05:00:50 10° ENE visible
10 Dec 5.8 06:33:26 10° SSW 06:39:12 65° ESE 06:45:17 10° NE visible
11 Dec 6.5 05:51:10 10° S 05:56:40 44° ESE 06:02:26 10° NE visible
12 Dec 7.1 05:09:16 10° S 05:14:14 30° ESE 05:19:26 10° NE visible
12 Dec 5.3 06:50:34 10° SW 06:56:27 73° NW 07:02:38 10° NE visible
13 Dec 7.7 04:27:52 10° SSE 04:31:55 20° ESE 04:36:08 10° ENE visible
13 Dec 5.4 06:07:50 10° SSW 06:13:43 82° SE 06:19:54 10° NE visible
14 Dec 8.1 03:47:27 10° ESE 03:49:44 12° E 03:52:04 10° ENE visible
14 Dec 5.9 05:25:23 10° SSW 05:31:06 57° ESE 05:37:06 10° NE visible
14 Dec 5.7 07:08:18 10° WSW 07:14:01 45° NW 07:19:55 10° NE visible
15 Dec 6.6 04:44:12 15° S 04:48:36 39° ESE 04:54:12 10° NE visible
15 Dec 5.4 06:25:13 10° WSW 06:31:06 60° NW 06:37:13 10° NE visible
16 Dec 7.2 04:04:16 22° SE 04:06:13 26° ESE 04:11:08 10° NE visible
16 Dec 5.2 05:44:16 22° SW 05:48:18 81° NW 05:54:29 10° NE visible
16 Dec 6.2 07:26:30 10° W 07:31:50 31° NNW 07:37:15 10° NE visible
